[[{"header":{"parameterUnit":"m.s-1","parameterCategory":1,"la1":30.2991,"la2":30.254,"lo1":-89.0895,"lo2":-89.0444,"dy":0.0017,"dx":0.0017,"nx":28,"ny":28,"refTime":"2024-05-21T03:00:00:Z","depth":0,"parameterNumber":2,"parameterNumberName":"U-component_of_WINDS"},"data":[0,0,0,0,0,0,0,0,0,0,0,0,0,0,0,0,0,0,0,0,0,0,0,0,0,0,0,0,0,0,0,0,0,0,0,0,0,0,0,0,0,0,0,0,0,0,0,0,0,0,0,0,0,0,0,0,0,0,-2.5542,-2.5542,0,-2.5558,-2.5558,-2.5558,-2.5519,-2.5518,-2.5517,-2.5516,-2.5534,-2.5536,-2.5538,0,0,0,0,0,0,0,0,0,0,0,0,0,-2.5481,-2.5482,-2.5542,-2.5542,-2.5542,-2.5558,-2.5558,-2.5558,-2.552,-2.5518,-2.5517,-2.5515,-2.5534,-2.5536,-2.5538,0,0,0,0,0,0,0,0,0,0,0,0,0,-2.5503,-2.5483,-2.5542,-2.5525,-2.5523,-2.5558,-2.5558,-2.5558,-2.552,-2.5518,-2.5516,-2.5514,-2.5533,-2.5536,-2.5538,-2.5591,0,0,-2.5546,-2.5547,0,0,0,0,0,0,0,0,-2.5502,-2.5506,-2.5527,-2.5526,-2.5525,-2.5535,-2.5543,-2.5569,-2.552,-2.5521,-2.5516,-2.5514,-2.5536,-2.5538,-2.5545,-2.5591,-2.5592,-2.5546,-2.5547,-2.5548,-2.5549,0,0,0,0,0,0,0,-2.5501,-2.5505,-2.5548,-2.5527,-2.5526,-2.5517,-2.5519,-2.5548,-2.5539,-2.5521,-2.5518,-2.5521,-2.5535,-2.5543,-2.5546,-2.5592,-2.5546,-2.5548,-2.555,-2.5551,-2.5683,-2.5685,0,0,0,0,0,0,-2.5501,-2.5504,-2.5548,-2.5549,-2.5508,-2.552,-2.5521,-2.5533,-2.5539,-2.5538,-2.5522,-2.5519,-2.554,-2.5543,-2.5546,-2.5608,-2.5548,-2.5551,-2.5552,-2.5681,-2.5684,-2.5686,0,0,0,0,0,0,-2.55,-2.5505,-2.5547,-2.5526,-2.553,-2.5523,-2.5537,-2.5535,-2.5542,-2.5539,-2.5538,-2.5532,-2.5538,-2.5543,-2.558,-2.5608,-2.5552,-2.5554,-2.5679,-2.5682,-2.5685,-2.5732,0,0,0,0,0,0,-2.5498,-2.5505,-2.5524,-2.5526,-2.5531,-2.558,-2.5539,-2.5536,-2.5547,-2.5542,-2.5548,-2.5547,-2.5537,-2.5576,-2.5582,-2.561,-2.5556,-2.5676,-2.568,-2.5684,-2.5728,-2.5736,-2.5743,0,0,0,0,0,-2.5496,-2.5537,-2.5525,-2.5531,-2.5555,-2.5581,-2.5584,-2.5571,-2.5549,-2.5568,-2.5567,-2.5547,-2.5604,-2.558,-2.5587,-2.5616,-2.5675,-2.5679,-2.5684,-2.5724,-2.5734,-2.5743,0,0,0,0,0,0,-2.5538,-2.5537,-2.5524,-2.5566,-2.5574,-2.5575,-2.5598,-2.5583,-2.5598,-2.5593,-2.5578,-2.5579,-2.562,-2.5622,-2.5595,-2.5668,-2.5636,-2.5642,-2.5664,-2.5674,-2.5682,-2.568,-2.5558,0,0,0,0,0,-2.5553,-2.5573,-2.5571,-2.5609,-2.5614,-2.5606,-2.5617,-2.5606,-2.5614,-2.5618,-2.5618,-2.5628,-2.5648,-2.5661,-2.568,-2.5729,-2.573,-2.5752,-2.576,-2.5766,-2.5771,-2.5798,-2.5808,-2.5701,-2.5701,-2.5701,0,0,-2.5582,-2.5584,-2.5598,-2.5618,-2.5622,-2.5645,-2.5609,-2.5634,-2.5651,-2.5622,-2.5656,-2.5658,-2.5667,-2.5711,-2.573,-2.5714,-2.5801,-2.5772,-2.5777,-2.5779,-2.5804,-2.5814,-2.5823,-2.5704,-2.5704,-2.5703,0,0,-2.5648,-2.5651,-2.5683,-2.5689,-2.5696,-2.5691,-2.5699,-2.5702,-2.5702,-2.5737,-2.5715,-2.5736,-2.5771,-2.5779,-2.5787,-2.5858,-2.584,-2.5864,-2.5904,-2.5931,-2.5939,-2.5946,-2.5971,-2.598,-2.587,-2.587,-2.587,0,-2.5683,-2.5716,-2.5701,-2.5728,-2.5738,-2.5712,-2.5745,-2.5752,-2.5766,-2.5774,-2.5755,-2.5799,-2.5804,-2.5849,-2.5866,-2.5874,-2.5883,-2.5863,-2.5939,-2.5946,-2.5953,-2.5976,-2.5986,-2.5873,-2.5872,-2.5872,-2.5872,0,-2.5759,-2.5782,-2.5808,-2.5821,-2.5834,-2.5863,-2.5855,-2.587,-2.5859,-2.5856,-2.5892,-2.5897,-2.5916,-2.5927,-2.5917,-2.5971,-2.5961,-2.5941,-2.5908,-2.5966,-2.5988,-2.5997,-2.5877,-2.5876,-2.5875,-2.5874,0,0,-2.585,-2.5856,-2.5865,-2.5871,-2.5879,-2.5897,-2.5927,-2.5945,-2.5958,-2.5969,-2.5994,-2.6025,-2.6007,-2.6017,-2.6008,-2.6031,-2.6086,-2.6008,-2.6009,-2.6022,-2.6147,-2.6161,-2.6171,-2.6076,-2.6077,-2.6079,-2.6146,0,-2.5914,-2.5963,-2.5952,-2.6001,-2.6022,-2.6,-2.6025,-2.6034,-2.6032,-2.6051,-2.6051,-2.6072,-2.6047,-2.6053,-2.6075,-2.6075,-2.6111,-2.607,-2.6099,-2.61,-2.6096,-2.6183,-2.6197,-2.626,-2.6154,-2.6156,-2.6157,0,-2.5995,-2.6008,-2.6059,-2.6064,-2.6073,-2.6096,-2.6112,-2.6131,-2.614,-2.6138,-2.615,-2.6136,-2.6167,-2.6135,-2.6178,-2.615,-2.6162,-2.6164,-2.6166,-2.6167,-2.6131,-2.6186,-2.628,-2.6289,-2.617,-2.6169,-2.6168,0,-2.6055,-2.6086,-2.6121,-2.6127,-2.6134,-2.6151,-2.6155,-2.6162,-2.6174,-2.6189,-2.6197,-2.6216,-2.6226,-2.6241,-2.6234,-2.6212,-2.6278,-2.6246,-2.6277,-2.6278,-2.6291,-2.629,-2.6388,-2.63,-2.63,-2.63,-2.63,0,-2.6127,-2.6159,-2.6148,-2.6169,-2.6205,-2.6193,-2.6229,-2.623,-2.6238,-2.626,-2.6242,-2.6263,-2.6253,-2.6274,-2.6269,-2.6305,-2.631,-2.6309,-2.6307,-2.631,-2.631,-2.6316,-2.6312,-2.6303,-2.6302,-2.6301,-2.6301,0,-2.62,-2.6194,-2.623,-2.6234,-2.6235,-2.6262,-2.6265,-2.6286,-2.6284,-2.6312,-2.6318,-2.6315,-2.6339,-2.6334,-2.636,-2.6357,-2.6402,-2.6395,-2.6398,-2.6396,-2.6428,-2.6425,-2.6532,-2.6546,-2.645,-2.6451,-2.6452,0,-2.6245,-2.6269,-2.6276,-2.6289,-2.6294,-2.6315,-2.6327,-2.6317,-2.6331,-2.6344,-2.6364,-2.6386,-2.6403,-2.6442,-2.6443,-2.6464,-2.6457,-2.6493,-2.6459,-2.6462,-2.6457,-2.6455,-2.6457,-2.6499,-2.65,-2.6501,-2.6502,0,-2.6327,-2.6323,-2.6341,-2.6358,-2.6373,-2.6386,-2.6398,-2.641,-2.6401,-2.6418,-2.6441,-2.6454,-2.6482,-2.6504,-2.6523,-2.6528,-2.6514,-2.6513,-2.6521,-2.6524,-2.6524,-2.6524,-2.6415,-2.651,-2.6509,-2.6509,-2.6508,-2.6508,-2.6388,-2.6408,-2.6416,-2.6436,-2.6444,-2.6456,-2.6475,-2.6476,-2.6495,-2.6515,-2.6509,-2.6536,-2.6547,-2.6571,-2.6579,-2.6601,-2.6587,-2.6599,-2.6602,-2.6605,-2.6609,-2.6522,-2.6604,-2.6604,-2.6604,-2.6604,-2.6603,0,-2.6468,-2.6472,-2.6491,-2.6508,-2.6525,-2.6509,-2.6522,-2.6537,-2.6561,-2.6572,-2.6589,-2.6617,-2.6639,-2.6642,-2.6663,-2.6681,-2.6675,-2.6686,-2.6685,-2.6686,-2.662,-2.661,-2.6691,-2.6691,-2.6691,-2.6691,-2.6691,-2.6691,-2.6512,-2.6545,-2.6543,-2.6581,-2.6585,-2.6611,-2.6619,-2.6631,-2.6639,-2.6671,-2.6689,-2.669,-2.6699,-2.672,-2.674,-2.6741,-2.6749,-2.6764,-2.6762,-2.6699,-2.6691,-2.6682,-2.6673,-2.6766,-2.6766,-2.6826,-2.6827,-2.6827]},{"header":{"parameterUnit":"m.s-1","parameterCategory":1,"la1":30.2991,"la2":30.254,"lo1":-89.0895,"lo2":-89.0444,"dy":0.0017,"dx":0.0017,"nx":28,"ny":28,"refTime":"2024-05-21T03:00:00:Z","depth":0,"parameterNumber":3,"parameterNumberName":"V-component_of_WINDS"},"data":[0,0,0,0,0,0,0,0,0,0,0,0,0,0,0,0,0,0,0,0,0,0,0,0,0,0,0,0,0,0,0,0,0,0,0,0,0,0,0,0,0,0,0,0,0,0,0,0,0,0,0,0,0,0,0,0,0,0,2.4242,2.4243,0,2.432,2.432,2.4321,2.4407,2.4409,2.441,2.4411,2.4487,2.4488,2.4488,0,0,0,0,0,0,0,0,0,0,0,0,0,2.4167,2.4168,2.4242,2.4243,2.4244,2.4319,2.432,2.4322,2.4407,2.4409,2.441,2.4412,2.4486,2.4487,2.4488,0,0,0,0,0,0,0,0,0,0,0,0,0,2.4217,2.4168,2.4242,2.4296,2.4302,2.4319,2.432,2.4322,2.4407,2.4409,2.4411,2.4412,2.4486,2.4487,2.4489,2.4458,0,0,2.4492,2.4493,0,0,0,0,0,0,0,0,2.4214,2.422,2.4287,2.4292,2.4299,2.4356,2.4322,2.4367,2.4406,2.4367,2.4411,2.4413,2.4441,2.4446,2.4457,2.4462,2.4465,2.4492,2.4493,2.4494,2.4494,0,0,0,0,0,0,0,2.4211,2.4217,2.4273,2.4288,2.4295,2.4316,2.4325,2.4331,2.4392,2.437,2.4377,2.4385,2.4445,2.4455,2.4459,2.4466,2.4492,2.4494,2.4494,2.4495,2.4452,2.445,0,0,0,0,0,0,2.42,2.4214,2.427,2.4275,2.4261,2.4316,2.4326,2.4336,2.4393,2.4403,2.4383,2.4389,2.4452,2.4457,2.4462,2.4432,2.4494,2.4495,2.4496,2.4454,2.4451,2.4449,0,0,0,0,0,0,2.4198,2.4204,2.4267,2.4246,2.4256,2.4315,2.4325,2.4336,2.4347,2.4402,2.4413,2.4383,2.4454,2.446,2.4459,2.4436,2.4495,2.4497,2.4456,2.4453,2.445,2.437,0,0,0,0,0,0,2.4195,2.4203,2.4192,2.4245,2.4257,2.4264,2.4323,2.4336,2.4349,2.4357,2.4405,2.4414,2.4456,2.4457,2.446,2.4439,2.4498,2.4458,2.4455,2.4451,2.4375,2.4365,2.4356,0,0,0,0,0,2.4192,2.4165,2.4191,2.4198,2.4245,2.4262,2.4268,2.4318,2.4347,2.4337,2.4373,2.4413,2.4437,2.4456,2.4461,2.4439,2.446,2.4456,2.4452,2.438,2.4367,2.4357,0,0,0,0,0,0,2.4106,2.4173,2.4203,2.4192,2.4221,2.4277,2.4265,2.4302,2.4323,2.4329,2.4388,2.4398,2.439,2.4414,2.4434,2.4413,2.4455,2.4451,2.4398,2.4387,2.4378,2.4373,2.4499,0,0,0,0,0,2.4086,2.4096,2.4153,2.4138,2.4152,2.4206,2.4215,2.425,2.4282,2.4294,2.433,2.4358,2.4373,2.4381,2.4397,2.4379,2.4391,2.4366,2.4356,2.4348,2.4345,2.4339,2.4329,2.4435,2.4435,2.4436,0,0,2.4045,2.4083,2.4085,2.4122,2.4149,2.4157,2.4215,2.422,2.4227,2.4295,2.4297,2.4324,2.4359,2.435,2.4348,2.437,2.4318,2.4343,2.4336,2.4337,2.4334,2.4324,2.4315,2.4433,2.4433,2.4434,0,0,2.3974,2.4003,2.3995,2.4021,2.4061,2.4097,2.4095,2.4145,2.4166,2.4169,2.4221,2.4228,2.4251,2.4275,2.429,2.4229,2.4268,2.4233,2.4184,2.4177,2.4169,2.4162,2.4141,2.4133,2.4229,2.4229,2.4229,0,2.3918,2.3933,2.3986,2.3989,2.4005,2.4067,2.406,2.4082,2.4124,2.4133,2.4157,2.4189,2.4217,2.4215,2.42,2.4209,2.4209,2.4228,2.4166,2.4159,2.4153,2.4135,2.4127,2.4224,2.4225,2.4225,2.4226,0,2.3862,2.3872,2.386,2.3902,2.3915,2.3913,2.3966,2.3973,2.4007,2.4041,2.4043,2.4079,2.4105,2.4106,2.4139,2.4109,2.4122,2.4155,2.4198,2.4138,2.4122,2.4115,2.4218,2.422,2.4221,2.4222,0,0,2.3741,2.3812,2.3807,2.3828,2.3876,2.3884,2.3884,2.391,2.3916,2.3943,2.3945,2.3964,2.3995,2.4012,2.4048,2.4041,2.3993,2.4075,2.4077,2.406,2.3964,2.3941,2.3932,2.4018,2.4017,2.4016,2.3962,0,2.368,2.3687,2.3735,2.3727,2.3737,2.3796,2.3797,2.3826,2.3858,2.387,2.3904,2.3917,2.3956,2.3967,2.3964,2.4,2.3975,2.4004,2.4021,2.4021,2.4013,2.3923,2.3898,2.3846,2.3956,2.3955,2.3954,0,2.3611,2.3636,2.3629,2.3679,2.3685,2.3685,2.3713,2.3724,2.3759,2.3782,2.3801,2.3842,2.3846,2.3885,2.3891,2.391,2.392,2.3938,2.3937,2.3942,2.3985,2.3927,2.383,2.3822,2.3944,2.3945,2.3946,0,2.3526,2.3556,2.3557,2.3572,2.363,2.3629,2.3652,2.3689,2.3702,2.3726,2.3736,2.3759,2.3772,2.3789,2.3835,2.3859,2.3837,2.3879,2.3857,2.3855,2.3851,2.3851,2.3755,2.3853,2.3853,2.3853,2.3854,0,2.3454,2.3448,2.352,2.3521,2.3516,2.3571,2.3564,2.3594,2.3626,2.3633,2.3685,2.369,2.375,2.3761,2.3797,2.3798,2.3802,2.3822,2.3831,2.3818,2.3816,2.3827,2.3832,2.3851,2.3852,2.3852,2.3853,0,2.3359,2.3407,2.3412,2.3466,2.348,2.3474,2.3521,2.3523,2.3558,2.3566,2.3571,2.3625,2.3642,2.3689,2.3717,2.3741,2.3732,2.3749,2.3721,2.3728,2.3703,2.3705,2.3612,2.3604,2.3705,2.3704,2.3703,0,2.3312,2.3309,2.3364,2.3373,2.3395,2.3408,2.3423,2.3476,2.3488,2.3528,2.3526,2.3547,2.3567,2.3591,2.3632,2.3655,2.3674,2.364,2.3678,2.3665,2.3676,2.3676,2.3677,2.3632,2.3631,2.3629,2.3629,0,2.3223,2.3247,2.3266,2.3293,2.3309,2.3332,2.3359,2.3363,2.3423,2.3434,2.3453,2.3468,2.3498,2.3519,2.3548,2.3571,2.361,2.3616,2.3613,2.36,2.3585,2.3595,2.3701,2.3618,2.3619,2.362,2.3621,2.3621,2.3152,2.3153,2.3192,2.3212,2.3237,2.3261,2.3267,2.3302,2.3319,2.3349,2.3379,2.3394,2.343,2.3473,2.3494,2.3506,2.3527,2.3521,2.352,2.3518,2.3512,2.3581,2.3511,2.3512,2.3512,2.3512,2.3513,0,2.3068,2.3096,2.3114,2.315,2.3165,2.3201,2.3232,2.3242,2.3256,2.3286,2.3305,2.3327,2.3347,2.339,2.3414,2.3416,2.3434,2.3421,2.3422,2.3427,2.3492,2.3494,2.3405,2.3405,2.3405,2.3405,2.3405,2.3405,2.3027,2.3031,2.3059,2.3077,2.3105,2.3122,2.3137,2.3159,2.3183,2.3206,2.3223,2.3251,2.3287,2.3314,2.3334,2.3346,2.3353,2.3334,2.3352,2.3412,2.3422,2.3432,2.3434,2.3335,2.3335,2.3287,2.3286,2.3286]}]]